This demonstration page uses our WeatherBlox Daily Observations layout. Learn more.

Left ArrowRight Arrow

39.51506, -84.39828

Hourly Observations for February 20, 2016

Temp ( °F °C ) Dew Point ( °F °C ) Humidity (%) Winds ( mph kmh ) Pressure ( in mb ) Visibility ( mi km ) Precip ( " mm )
12:15 am 00:15 Clear 57 13.8 49 9.2 74 74 WSW 9 15 30.00 1016 10 16 0.00 0.00
12:35 am 00:35 Clear 57 13.7 48 9.1 74 74 WSW 9 15 30.03 1017 10 16 0.00 0.00
12:55 am 00:55 Clear 56 13.3 49 9.4 77 77 WSW 10 17 30.03 1017 10 16 0.00 0.00
1:15 am 01:15 Clear 55 12.5 48 8.8 78 78 SW 8 13 30.03 1017 10 16 0.00 0.00
1:35 am 01:35 Clear 55 12.5 49 9.3 81 81 SW 8 13 30.03 1017 10 16 0.00 0.00
1:55 am 01:55 Clear 55 12.5 49 9.5 82 82 SW 8 13 30.03 1017 10 16 0.00 0.00
2:15 am 02:15 Clear 55 12.5 49 9.5 82 82 SW 8 13 30.03 1017 10 16 0.00 0.00
2:35 am 02:35 Clear 55 12.5 49 9.6 83 83 SW 7 11 30.03 1017 10 16 0.00 0.00
2:55 am 02:55 Clear 51 10.4 46 8 85 85 SW 7 11 30.03 1017 10 16 0.00 0.00
3:15 am 03:15 Clear 50 10.2 46 8 86 86 SW 6 9 30.03 1017 10 16 0.00 0.00
3:35 am 03:35 Clear 52 11 48 9 88 88 WSW 3 6 30.03 1017 10 16 0.00 0.00
3:55 am 03:55 Clear 49 9.6 46 7.5 87 87 SW 6 9 30.03 1017 7 11 0.00 0.00
4:15 am 04:15 Mostly Cloudy with Mist and Fog 43 6 39 3.8 86 86 SW 7 11 30.00 1016 1 1 0.00 0.00
4:35 am 04:35 Mostly Cloudy with Fog 44 6.8 41 5.1 89 89 SW 6 9 30.03 1017 1 1 0.00 0.00
4:55 am 04:55 Mostly Cloudy with Fog 43 6.1 40 4.3 88 88 SW 5 7 30.03 1017 0 0 0.00 0.00
5:15 am 05:15 Mostly Cloudy with Fog 43 6.1 40 4.5 90 90 WSW 3 6 30.03 1017 1 1 0.00 0.00
5:35 am 05:35 Mostly Cloudy with Fog 42 5.6 39 4 90 90 SW 5 7 30.03 1017 0 0 0.00 0.00
5:55 am 05:55 Mostly Cloudy with Fog 48 9 45 7.4 90 90 SW 3 6 30.03 1017 1 1 0.00 0.00
6:15 am 06:15 Mostly Cloudy with Fog 43 6.2 40 4.6 90 90 WSW 5 7 30.03 1017 0 0 0.00 0.00
6:35 am 06:35 Mostly Cloudy with Fog 42 5.8 40 4.3 90 90 SW 3 6 30.03 1017 5 8 0.00 0.00
6:55 am 06:55 Mostly Cloudy with Fog 42 5.8 40 4.2 90 90 SSW 3 6 30.00 1016 0 0 0.00 0.00
7:15 am 07:15 Mostly Cloudy with Fog 39 4 37 2.5 90 90 Calm 30.03 1017 5 8 0.00 0.00
7:35 am 07:35 Mostly Cloudy with Fog 43 6.1 40 4.6 90 90 SW 3 6 30.03 1017 5 8 0.00 0.00
7:55 am 07:55 Mostly Cloudy with Fog 45 7.3 43 5.9 91 91 SSW 7 11 30.03 1017 5 8 0.00 0.00
8:15 am 08:15 Mostly Cloudy with Mist and Fog 49 9.6 47 8.2 91 91 SSW 7 11 30.03 1017 1 2 0.00 0.00
8:35 am 08:35 Cloudy with Mist and Fog 49 9.7 47 8.3 91 91 SW 5 7 30.03 1017 2 3 0.00 0.00
8:55 am 08:55 Mostly Cloudy with Mist and Fog 52 11 49 9.6 91 91 SSW 7 11 30.03 1017 4 6 0.00 0.00
9:15 am 09:15 Partly Cloudy with Mist and Fog 55 12.5 52 11 91 91 SW 9 15 30.03 1017 5 8 0.00 0.00
9:35 am 09:35 Sunny 55 12.5 52 11 91 91 SW 14 22 30.03 1017 7 11 0.00 0.00
9:55 am 09:55 Sunny 55 12.8 52 11.2 90 90 SW 15 24 30.03 1017 10 16 0.00 0.00
10:15 am 10:15 Sunny 57 13.8 51 10.7 82 82 SW 12 19 30.03 1017 10 16 0.00 0.00
10:35 am 10:35 Sunny 60 15.3 50 10.1 71 71 SW 10 17 30.03 1017 10 16 0.00 0.00
10:55 am 10:55 Sunny 61 16 46 7.7 58 58 SW 18 30 30.00 1016 10 16 0.00 0.00
11:15 am 11:15 Sunny 63 17 45 7.2 53 53 SW 13 20 30.00 1016 10 16 0.00 0.00
11:35 am 11:35 Sunny 64 18 45 7.2 49 49 SSW 15 24 29.97 1015 10 16 0.00 0.00
11:55 am 11:55 Sunny 69 20.4 44 6.8 41 41 SW 17 28 29.97 1015 10 16 0.00 0.00
12:15 pm 12:15 Sunny 69 20.8 42 5.5 37 37 SW 20 31 29.97 1015 10 16 0.00 0.00
12:35 pm 12:35 Sunny 69 20.8 40 4.4 34 34 SW 21 33 29.97 1015 10 16 0.00 0.00
12:55 pm 12:55 Sunny 69 20.8 40 4.6 35 35 SW 20 31 29.94 1014 10 16 0.00 0.00
1:15 pm 13:15 Sunny 69 20.8 43 6 38 38 SW 18 30 29.94 1014 10 16 0.00 0.00
1:35 pm 13:35 Sunny 69 20.8 42 5.5 37 37 SW 16 26 29.91 1013 10 16 0.00 0.00
1:55 pm 13:55 Sunny 74 23.6 35 1.8 24 24 WSW 22 35 29.91 1013 10 16 0.00 0.00
2:15 pm 14:15 Sunny 74 23.6 32 0.2 21 21 WSW 23 37 29.91 1013 10 16 0.00 0.00
2:35 pm 14:35 Sunny 74 23.6 32 -0.1 21 21 WSW 24 39 29.91 1013 10 16 0.00 0.00
2:55 pm 14:55 Sunny 74 23.6 31 -0.3 21 21 WSW 23 37 29.91 1013 10 16 0.00 0.00
3:15 pm 15:15 Sunny 74 23.6 31 -0.5 20 20 WSW 21 33 29.91 1013 10 16 0.00 0.00
3:35 pm 15:35 Sunny 74 23.6 30 -1.2 19 19 WSW 20 31 29.91 1013 10 16 0.00 0.00
3:55 pm 15:55 Sunny 74 23.6 32 0 21 21 WSW 22 35 29.88 1012 10 16 0.00 0.00
4:15 pm 16:15 Sunny 74 23.6 33 0.7 22 22 WSW 21 33 29.88 1012 10 16 0.00 0.00
4:35 pm 16:35 Sunny 74 23.6 36 2.1 24 24 WSW 16 26 29.88 1012 10 16 0.00 0.00
4:55 pm 16:55 Sunny 74 23.6 36 2.4 25 25 WSW 17 28 29.88 1012 10 16 0.00 0.00
5:15 pm 17:15 Sunny 72 22.3 33 0.3 23 23 WSW 13 20 29.88 1012 10 16 0.00 0.00
5:35 pm 17:35 Sunny 70 21.3 32 0 24 24 WSW 10 17 29.91 1013 10 16 0.00 0.00
5:55 pm 17:55 Sunny 69 20.8 34 1.1 27 27 WSW 10 17 29.91 1013 10 16 0.00 0.00
6:15 pm 18:15 Sunny 67 19.6 36 2 31 31 WSW 8 13 29.91 1013 10 16 0.00 0.00
6:35 pm 18:35 Clear 64 18 35 1.6 33 33 WSW 6 9 29.91 1013 10 16 0.00 0.00
6:55 pm 18:55 Clear 64 17.8 35 1.5 34 34 WSW 5 7 29.91 1013 10 16 0.00 0.00
7:15 pm 19:15 Clear 60 15.3 36 2.4 42 42 WSW 5 7 29.94 1014 10 16 0.00 0.00
7:35 pm 19:35 Clear 60 15.3 38 3.5 45 45 WSW 6 9 29.94 1014 10 16 0.00 0.00
7:55 pm 19:55 Clear 58 14.2 39 3.8 50 50 WSW 5 7 29.97 1015 10 16 0.00 0.00
8:15 pm 20:15 Clear 55 12.9 39 3.7 54 54 Calm 29.97 1015 10 16 0.00 0.00
8:35 pm 20:35 Clear 55 12.5 41 5.1 61 61 Calm 29.97 1015 10 16 0.00 0.00
8:55 pm 20:55 Clear 55 12.5 41 4.9 60 60 Calm 29.97 1015 10 16 0.00 0.00
9:15 pm 21:15 Clear 49 9.6 40 4.4 70 70 Calm 29.97 1015 10 16 0.00 0.00
9:35 pm 21:35 Clear 49 9.6 40 4.2 69 69 Calm 29.97 1015 10 16 0.00 0.00
9:55 pm 21:55 Clear 49 9.6 42 5.4 75 75 W 3 6 29.97 1015 10 16 0.00 0.00
10:15 pm 22:15 Clear 50 9.9 41 4.8 71 71 WSW 3 6 29.97 1015 10 16 0.00 0.00
10:35 pm 22:35 Clear 49 9.3 41 4.8 74 74 Calm 30.00 1016 10 16 0.00 0.00
10:55 pm 22:55 Clear 47 8.2 41 4.8 79 79 Calm 30.00 1016 10 16 0.00 0.00
11:15 pm 23:15 Clear 47 8.2 41 4.9 80 80 Calm 29.97 1015 10 16 0.00 0.00
11:35 pm 23:35 Partly Cloudy 47 8.2 40 4.5 78 78 Calm 29.97 1015 10 16 0.00 0.00
11:55 pm 23:55 Partly Cloudy 46 7.8 40 4.5 80 80 Calm 29.97 1015 10 16 0.00 0.00

Powered by AerisWeather